Location: Colorado Springs
(38.8340°N, 104.8210°W)
Time: 23:16:41
(UTC-06:00)

Tiangong 1 - Pass Details

Date: 07 October 2017
Orbit: 293 x 320 km, 42.8° (Epoch: 19 October)

Event Time Altitude Azimuth Distance (km) Brightness Sun altitude
Rises 19:51:14 0° 269° (W) 2,032 6.5 -16.2°
Reaches altitude 10° 19:53:17 10° 277° (W) 1,199 4.9 -16.6°
Maximum altitude 19:55:51 40° 350° (N) 473 1.6 -17.1°
Enters shadow 19:56:08 38° 9° (N) 489 1.5 -17.2°
